EZY473T EGPF-EGAA

Flight info

Callsign EZY473T
Flight time 0h 42m
Altitude 18000
Route NORBO L186 TRN P600 BLACA DCT BELZU
Aircraft A320/M-SDE2E3FGHIRWXY/LB1

Departure

Time 2026-05-05 20:27
Airport Glasgow Airport (EGPF)

Arrival

Time 2026-05-05 21:09
Airport Belfast International Airport (EGAA)
Time Latitude Longitude Altitude Speed Heading
2026-05-05 20:08 55.86517 -4.43670 29 ft 0 kts 253°
2026-05-05 20:08 55.86515 -4.43683 29 ft 0 kts 253°
2026-05-05 20:20 55.86518 -4.43668 29 ft 3 kts 255°
2026-05-05 20:20 55.86522 -4.43633 29 ft 3 kts 260°
2026-05-05 20:21 55.86525 -4.43597 29 ft 3 kts 267°
2026-05-05 20:21 55.86525 -4.43562 29 ft 3 kts 279°
2026-05-05 20:21 55.86520 -4.43529 29 ft 3 kts 305°
2026-05-05 20:21 55.86511 -4.43511 29 ft 1 kts 342°
2026-05-05 20:22 55.86509 -4.43510 29 ft 0 kts 344°
2026-05-05 20:23 55.86528 -4.43520 29 ft 8 kts 345°
2026-05-05 20:24 55.86586 -4.43548 29 ft 8 kts 344°
2026-05-05 20:24 55.86634 -4.43574 29 ft 7 kts 343°
2026-05-05 20:24 55.86677 -4.43596 29 ft 7 kts 344°
2026-05-05 20:24 55.86725 -4.43626 29 ft 9 kts 329°
2026-05-05 20:25 55.86736 -4.43718 29 ft 8 kts 253°
2026-05-05 20:25 55.86683 -4.43852 29 ft 18 kts 221°
2026-05-05 20:25 55.86620 -4.44019 29 ft 14 kts 265°
2026-05-05 20:25 55.86617 -4.44188 29 ft 13 kts 272°
2026-05-05 20:26 55.86668 -4.44281 29 ft 11 kts
2026-05-05 20:26 55.86702 -4.44247 29 ft 0 kts 43°
2026-05-05 20:26 55.86798 -4.44075 29 ft 56 kts 46°
2026-05-05 20:26 55.87227 -4.43263 29 ft 119 kts 47°
2026-05-05 20:27 55.87896 -4.41985 159 ft 155 kts 48°
2026-05-05 20:27 55.88606 -4.40611 953 ft 150 kts 50°
2026-05-05 20:27 55.89369 -4.39181 1389 ft 169 kts 50°
2026-05-05 20:27 55.90235 -4.37567 1717 ft 193 kts 49°
2026-05-05 20:28 55.91233 -4.35716 2095 ft 218 kts 50°
2026-05-05 20:28 55.92342 -4.33665 2633 ft 238 kts 47°
2026-05-05 20:28 55.93731 -4.32024 3491 ft 250 kts 22°
2026-05-05 20:28 55.95488 -4.31758 4443 ft 260 kts 351°
2026-05-05 20:29 55.97138 -4.33094 5407 ft 265 kts 320°
2026-05-05 20:29 55.98205 -4.35751 6418 ft 266 kts 290°
2026-05-05 20:29 55.98378 -4.39029 7377 ft 269 kts 262°
2026-05-05 20:29 55.97716 -4.42125 8349 ft 272 kts 247°
2026-05-05 20:30 55.96904 -4.45158 9240 ft 274 kts 247°
2026-05-05 20:30 55.96062 -4.48288 10137 ft 277 kts 247°
2026-05-05 20:30 55.95052 -4.51208 10914 ft 285 kts 232°
2026-05-05 20:30 55.93634 -4.53880 11285 ft 307 kts 229°
2026-05-05 20:31 55.92089 -4.56680 11698 ft 324 kts 228°
2026-05-05 20:31 55.90484 -4.59553 12422 ft 329 kts 228°
2026-05-05 20:31 55.88858 -4.62452 13195 ft 332 kts 228°
2026-05-05 20:31 55.87235 -4.65346 13951 ft 335 kts 228°
2026-05-05 20:32 55.85441 -4.68051 14602 ft 342 kts 216°
2026-05-05 20:32 55.83410 -4.70338 15246 ft 345 kts 216°
2026-05-05 20:32 55.81336 -4.72536 15911 ft 350 kts 208°
2026-05-05 20:32 55.78987 -4.73916 16544 ft 357 kts 199°
2026-05-05 20:33 55.76575 -4.75077 17216 ft 360 kts 198°
2026-05-05 20:33 55.74142 -4.76220 17853 ft 363 kts 198°
2026-05-05 20:33 55.71697 -4.77361 18058 ft 364 kts 198°
2026-05-05 20:33 55.69291 -4.78475 18100 ft 350 kts 198°
2026-05-05 20:34 55.66985 -4.79545 18088 ft 346 kts 198°
2026-05-05 20:34 55.64650 -4.80640 18089 ft 345 kts 198°
2026-05-05 20:34 55.62328 -4.81735 18098 ft 345 kts 199°
2026-05-05 20:34 55.60006 -4.82835 18094 ft 345 kts 199°
2026-05-05 20:35 55.57712 -4.83923 18086 ft 345 kts 199°
2026-05-05 20:35 55.55392 -4.85016 18086 ft 345 kts 198°
2026-05-05 20:35 55.53075 -4.86099 18085 ft 345 kts 198°
2026-05-05 20:35 55.50749 -4.87187 18083 ft 345 kts 198°
2026-05-05 20:36 55.48426 -4.88273 18088 ft 345 kts 198°
2026-05-05 20:36 55.46102 -4.89360 18085 ft 345 kts 198°
2026-05-05 20:36 55.43779 -4.90445 18084 ft 345 kts 198°
2026-05-05 20:36 55.41486 -4.91515 18067 ft 345 kts 198°
2026-05-05 20:37 55.39156 -4.92597 18065 ft 345 kts 198°
2026-05-05 20:37 55.36835 -4.93674 18061 ft 345 kts 198°
2026-05-05 20:37 55.34507 -4.94752 18070 ft 345 kts 198°
2026-05-05 20:37 55.32185 -4.95830 18067 ft 345 kts 198°
2026-05-05 20:38 55.29868 -4.96902 18072 ft 345 kts 198°
2026-05-05 20:38 55.27569 -4.97961 18068 ft 345 kts 198°
2026-05-05 20:38 55.25242 -4.99032 18069 ft 345 kts 198°
2026-05-05 20:38 55.22913 -5.00101 18070 ft 345 kts 198°
2026-05-05 20:39 55.20587 -5.01167 18071 ft 345 kts 198°
2026-05-05 20:39 55.18258 -5.02233 18073 ft 345 kts 198°
2026-05-05 20:39 55.15929 -5.03303 18054 ft 345 kts 198°
2026-05-05 20:39 55.13600 -5.04376 18060 ft 345 kts 198°
2026-05-05 20:40 55.11305 -5.05434 18063 ft 345 kts 198°
2026-05-05 20:40 55.08980 -5.06499 18067 ft 345 kts 198°
2026-05-05 20:40 55.06652 -5.07564 18050 ft 344 kts 198°
2026-05-05 20:40 55.04361 -5.08605 17775 ft 337 kts 198°
2026-05-05 20:41 55.02109 -5.09623 17494 ft 330 kts 198°
2026-05-05 20:41 54.99905 -5.10617 17237 ft 325 kts 198°
2026-05-05 20:41 54.97719 -5.11606 16965 ft 322 kts 198°
2026-05-05 20:41 54.95579 -5.12578 16709 ft 321 kts 198°
2026-05-05 20:42 54.93423 -5.13564 16446 ft 319 kts 198°
2026-05-05 20:42 54.91317 -5.14721 16187 ft 315 kts 208°
2026-05-05 20:42 54.89471 -5.16684 15913 ft 308 kts 223°
2026-05-05 20:42 54.88019 -5.19335 15681 ft 299 kts 237°
2026-05-05 20:43 54.87015 -5.22438 15375 ft 293 kts 251°
2026-05-05 20:43 54.86334 -5.25771 15041 ft 291 kts 253°
2026-05-05 20:43 54.85665 -5.29080 14698 ft 290 kts 253°
2026-05-05 20:43 54.84991 -5.32386 14360 ft 290 kts 253°
2026-05-05 20:44 54.84326 -5.35636 14019 ft 289 kts 253°
2026-05-05 20:44 54.83683 -5.38948 13653 ft 288 kts 257°
2026-05-05 20:44 54.83194 -5.42308 13279 ft 287 kts 259°
2026-05-05 20:44 54.82732 -5.45687 12902 ft 287 kts 259°
2026-05-05 20:45 54.81822 -5.52397 12163 ft 285 kts 259°
2026-05-05 20:45 54.81371 -5.55736 11804 ft 284 kts 258°
2026-05-05 20:45 54.80890 -5.59070 11443 ft 284 kts 257°
2026-05-05 20:46 54.80387 -5.62370 11092 ft 283 kts 257°
2026-05-05 20:46 54.79876 -5.65656 10746 ft 282 kts 257°
2026-05-05 20:46 54.79369 -5.68887 10405 ft 281 kts 257°
2026-05-05 20:46 54.78859 -5.72151 10059 ft 280 kts 257°
2026-05-05 20:47 54.78355 -5.75393 9689 ft 278 kts 257°
2026-05-05 20:47 54.77856 -5.78629 9316 ft 276 kts 257°
2026-05-05 20:47 54.77364 -5.81835 8936 ft 275 kts 257°
2026-05-05 20:47 54.76876 -5.85003 8569 ft 273 kts 256°
2026-05-05 20:48 54.76384 -5.88179 8206 ft 272 kts 257°
2026-05-05 20:48 54.75893 -5.91335 7844 ft 273 kts 256°
2026-05-05 20:48 54.75395 -5.94523 7485 ft 273 kts 255°
2026-05-05 20:48 54.74898 -5.97690 7109 ft 272 kts 255°
2026-05-05 20:49 54.74403 -6.00841 6683 ft 272 kts 255°
2026-05-05 20:49 54.73906 -6.04009 6266 ft 273 kts 255°
2026-05-05 20:49 54.73410 -6.07167 5854 ft 271 kts 255°
2026-05-05 20:49 54.72918 -6.10286 5438 ft 271 kts 255°
2026-05-05 20:50 54.72424 -6.13423 5053 ft 269 kts 255°
2026-05-05 20:50 54.72092 -6.15536 4743 ft 269 kts 255°
2026-05-05 20:50 54.71439 -6.19672 4177 ft 268 kts 256°
2026-05-05 20:50 54.70947 -6.22782 3732 ft 267 kts 256°
2026-05-05 20:51 54.70456 -6.25873 3356 ft 265 kts 256°
2026-05-05 20:51 54.69971 -6.28927 2956 ft 263 kts 257°
2026-05-05 20:51 54.69486 -6.31967 2556 ft 261 kts 257°
2026-05-05 20:51 54.69020 -6.34873 2898 ft 239 kts 257°
2026-05-05 20:52 54.68584 -6.37599 3697 ft 246 kts 256°
2026-05-05 20:52 54.68111 -6.40584 3951 ft 265 kts 256°
2026-05-05 20:52 54.67616 -6.43683 4002 ft 269 kts 256°
2026-05-05 20:52 54.67118 -6.46774 3999 ft 260 kts 255°
2026-05-05 20:53 54.66647 -6.49684 4006 ft 242 kts 257°
2026-05-05 20:53 54.66200 -6.52436 4010 ft 235 kts 256°
2026-05-05 20:53 54.65766 -6.55116 4008 ft 234 kts 254°
2026-05-05 20:53 54.64937 -6.57536 4007 ft 239 kts 224°
2026-05-05 20:54 54.63480 -6.58880 3945 ft 239 kts 191°
2026-05-05 20:54 54.61843 -6.58767 3594 ft 237 kts 162°
2026-05-05 20:54 54.60808 -6.58128 3339 ft 236 kts 150°
2026-05-05 20:54 54.59576 -6.56479 3203 ft 222 kts 125°
2026-05-05 20:55 54.58878 -6.54200 3076 ft 210 kts 102°
2026-05-05 20:55 54.58495 -6.51788 2882 ft 207 kts 100°
2026-05-05 20:55 54.58390 -6.49389 2634 ft 200 kts 77°
2026-05-05 20:55 54.58822 -6.47159 2511 ft 196 kts 60°
2026-05-05 20:56 54.59413 -6.45024 2361 ft 198 kts 61°
2026-05-05 20:56 54.60004 -6.42858 2075 ft 202 kts 61°
2026-05-05 20:56 54.60594 -6.40682 1889 ft 198 kts 60°
2026-05-05 20:56 54.61154 -6.38598 1816 ft 180 kts 60°
2026-05-05 20:57 54.61780 -6.36247 1798 ft 151 kts 59°
2026-05-05 20:57 54.62071 -6.35164 1676 ft 142 kts 60°
2026-05-05 20:57 54.62471 -6.33675 1474 ft 135 kts 60°
2026-05-05 20:57 54.62869 -6.32205 1225 ft 133 kts 61°
2026-05-05 20:58 54.63262 -6.30757 1200 ft 136 kts 60°
2026-05-05 20:58 54.63662 -6.29280 981 ft 135 kts 61°
2026-05-05 20:58 54.64068 -6.27806 793 ft 137 kts 60°
2026-05-05 20:58 54.64490 -6.26335 618 ft 137 kts 59°
2026-05-05 20:59 54.64965 -6.24722 795 ft 165 kts 62°
2026-05-05 20:59 54.65543 -6.22823 1069 ft 192 kts 59°
2026-05-05 20:59 54.66175 -6.20716 1208 ft 203 kts 62°
2026-05-05 20:59 54.66807 -6.18498 1734 ft 206 kts 63°
2026-05-05 21:00 54.67461 -6.16249 1856 ft 208 kts 58°
2026-05-05 21:00 54.68141 -6.14068 2474 ft 209 kts 58°
2026-05-05 21:00 54.69070 -6.12173 3355 ft 210 kts 31°
2026-05-05 21:00 54.70477 -6.11424 3877 ft 217 kts
2026-05-05 21:01 54.71913 -6.12133 3986 ft 219 kts 327°
2026-05-05 21:01 54.72894 -6.14123 4006 ft 224 kts 296°
2026-05-05 21:01 54.73187 -6.16766 4011 ft 228 kts 266°
2026-05-05 21:01 54.72765 -6.19549 4014 ft 250 kts 252°
2026-05-05 21:02 54.72198 -6.22461 4011 ft 257 kts 252°
2026-05-05 21:02 54.71621 -6.25391 4006 ft 258 kts 252°
2026-05-05 21:02 54.71042 -6.28335 4010 ft 257 kts 252°
2026-05-05 21:02 54.70469 -6.31257 4009 ft 256 kts 252°
2026-05-05 21:03 54.69896 -6.34185 4006 ft 258 kts 252°
2026-05-05 21:03 54.69319 -6.37132 4006 ft 258 kts 252°
2026-05-05 21:03 54.68747 -6.40055 4011 ft 259 kts 252°
2026-05-05 21:03 54.68171 -6.43000 4007 ft 258 kts 252°
2026-05-05 21:04 54.67595 -6.45939 4011 ft 259 kts 252°
2026-05-05 21:04 54.66763 -6.48672 4005 ft 256 kts 231°
2026-05-05 21:04 54.65420 -6.50525 3914 ft 245 kts 206°
2026-05-05 21:04 54.63799 -6.51239 3716 ft 238 kts 181°
2026-05-05 21:05 54.62164 -6.50894 3430 ft 237 kts 168°
2026-05-05 21:05 54.60586 -6.50304 3262 ft 230 kts 156°
2026-05-05 21:05 54.59418 -6.48639 3129 ft 214 kts 114°
2026-05-05 21:05 54.59166 -6.46254 2979 ft 199 kts 75°
2026-05-05 21:06 54.59724 -6.44134 2764 ft 193 kts 56°
2026-05-05 21:06 54.60355 -6.42067 2494 ft 192 kts 62°
2026-05-05 21:06 54.60872 -6.40076 2488 ft 170 kts 63°
2026-05-05 21:06 54.61317 -6.38315 2377 ft 148 kts 62°
2026-05-05 21:07 54.61708 -6.36783 2167 ft 135 kts 61°
2026-05-05 21:07 54.62089 -6.35321 1863 ft 132 kts 60°
2026-05-05 21:07 54.62467 -6.33880 1514 ft 132 kts 60°
2026-05-05 21:07 54.62847 -6.32440 1313 ft 131 kts 60°
2026-05-05 21:08 54.63235 -6.30979 1316 ft 134 kts 60°
2026-05-05 21:08 54.63626 -6.29527 1146 ft 132 kts 61°
2026-05-05 21:08 54.64019 -6.28121 842 ft 133 kts 63°
2026-05-05 21:08 54.64416 -6.26651 681 ft 133 kts 66°
2026-05-05 21:09 54.64801 -6.25195 567 ft 134 kts 68°
2026-05-05 21:09 54.65180 -6.23739 364 ft 134 kts 71°
2026-05-05 21:09 54.65544 -6.22324 273 ft 119 kts 65°
2026-05-05 21:09 54.65807 -6.21365 272 ft 45 kts 64°
2026-05-05 21:10 54.65929 -6.20905 272 ft 42 kts 66°
2026-05-05 21:10 54.66052 -6.20456 272 ft 40 kts 64°
2026-05-05 21:10 54.66170 -6.20031 277 ft 33 kts 65°
2026-05-05 21:10 54.66257 -6.19696 276 ft 19 kts 63°
2026-05-05 21:11 54.66369 -6.19721 274 ft 20 kts 329°
2026-05-05 21:11 54.66380 -6.19903 275 ft 18 kts 255°
2026-05-05 21:11 54.66323 -6.20130 272 ft 23 kts 244°
2026-05-05 21:11 54.66251 -6.20416 274 ft 27 kts 247°
2026-05-05 21:12 54.66185 -6.20647 272 ft 22 kts 247°
2026-05-05 21:12 54.66127 -6.20863 272 ft 21 kts 245°
2026-05-05 21:12 54.66065 -6.21097 275 ft 17 kts 243°
2026-05-05 21:12 54.66081 -6.21223 272 ft 12 kts 321°
2026-05-05 21:13 54.66160 -6.21290 272 ft 10 kts 319°
2026-05-05 21:13 54.66158 -6.21330 272 ft 3 kts 245°
2026-05-05 21:13 54.66149 -6.21368 274 ft 4 kts 246°
2026-05-05 21:13 54.66147 -6.21376 272 ft 0 kts 246°